Previsão horária em Alinowo

Hoje, 25 Junho, Sexta-feira

Tempo Temperatura Precipitação Vento Pressão Humidade
00:00 +16°C° 0 mm 3 m/s 752 mmHg 96%
01:00 +16°C° 0 mm 3 m/s 751 mmHg 97%
02:00 +16°C° 0 mm 3 m/s 752 mmHg 96%
03:00 +16°C° 0 mm 3 m/s 752 mmHg 95%
04:00 +14°C° 0 mm 3 m/s 752 mmHg 94%
05:00 +16°C° 0 mm 3 m/s 752 mmHg 90%
06:00 +17°C° 0 mm 3 m/s 752 mmHg 87%
07:00 +18°C° 0 mm 3 m/s 752 mmHg 83%
08:00 +18°C° 0 mm 3 m/s 752 mmHg 81%
09:00 +19°C° 0 mm 2 m/s 752 mmHg 80%
10:00 +19°C° 0 mm 2 m/s 753 mmHg 78%
11:00 +20°C° 0.1 mm 2 m/s 753 mmHg 74%
12:00 +21°C° 0.1 mm 2 m/s 753 mmHg 71%
13:00 +23°C° 0.1 mm 2 m/s 753 mmHg 67%
14:00 +23°C° 0.1 mm 2 m/s 752 mmHg 65%
15:00 +24°C° 0.1 mm 2 m/s 752 mmHg 63%
16:00 +24°C° 0.1 mm 2 m/s 752 mmHg 62%
17:00 +23°C° 0.4 mm 2 m/s 752 mmHg 68%
18:00 +21°C° 0.4 mm 2 m/s 752 mmHg 74%
19:00 +20°C° 0.4 mm 2 m/s 752 mmHg 80%
20:00 +19°C° 0.2 mm 2 m/s 752 mmHg 82%
21:00 +19°C° 0.2 mm 2 m/s 752 mmHg 84%
22:00 +18°C° 0.2 mm 2 m/s 753 mmHg 87%
23:00 +17°C° 0 mm 2 m/s 753 mmHg 89%

Amanhã, 26 Junho, Sábado

Tempo Temperatura Precipitação Vento Pressão Humidade
00:00 +17°C° 0 mm 2 m/s 753 mmHg 91%
01:00 +16°C° 0 mm 2 m/s 753 mmHg 93%
02:00 +16°C° 0 mm 2 m/s 753 mmHg 94%
03:00 +15°C° 0 mm 2 m/s 753 mmHg 94%
04:00 +15°C° 0 mm 2 m/s 753 mmHg 95%
05:00 +16°C° 0 mm 2 m/s 753 mmHg 90%
06:00 +18°C° 0 mm 2 m/s 754 mmHg 85%
07:00 +19°C° 0 mm 2 m/s 754 mmHg 81%
08:00 +20°C° 0 mm 2 m/s 754 mmHg 75%
09:00 +21°C° 0 mm 3 m/s 754 mmHg 70%
10:00 +22°C° 0 mm 3 m/s 754 mmHg 64%
11:00 +24°C° 0.1 mm 3 m/s 754 mmHg 61%
12:00 +24°C° 0.1 mm 3 m/s 754 mmHg 58%
13:00 +25°C° 0.1 mm 4 m/s 754 mmHg 55%
14:00 +25°C° 0 mm 3 m/s 754 mmHg 53%
15:00 +25°C° 0 mm 3 m/s 754 mmHg 51%
16:00 +25°C° 0 mm 3 m/s 753 mmHg 49%
17:00 +24°C° 0 mm 3 m/s 753 mmHg 54%
18:00 +23°C° 0 mm 2 m/s 753 mmHg 59%
19:00 +21°C° 0 mm 2 m/s 753 mmHg 64%
20:00 +20°C° 0 mm 2 m/s 753 mmHg 66%
21:00 +19°C° 0 mm 2 m/s 754 mmHg 67%
22:00 +17°C° 0 mm 2 m/s 754 mmHg 68%
23:00 +16°C° 0 mm 2 m/s 754 mmHg 74%

Depois de amanhã, 27 Junho, Domingo

Tempo Temperatura Precipitação Vento Pressão Humidade
00:00 +16°C° 0 mm 2 m/s 754 mmHg 80%
01:00 +15°C° 0 mm 2 m/s 754 mmHg 86%
02:00 +15°C° 0 mm 2 m/s 754 mmHg 88%
03:00 +14°C° 0 mm 2 m/s 754 mmHg 90%
04:00 +14°C° 0 mm 2 m/s 754 mmHg 92%
05:00 +16°C° 0 mm 2 m/s 754 mmHg 86%
06:00 +17°C° 0 mm 2 m/s 754 mmHg 80%
07:00 +19°C° 0 mm 2 m/s 754 mmHg 74%
08:00 +20°C° 0 mm 2 m/s 754 mmHg 68%
09:00 +23°C° 0 mm 2 m/s 754 mmHg 62%
10:00 +24°C° 0 mm 3 m/s 754 mmHg 55%
11:00 +25°C° 0 mm 3 m/s 754 mmHg 53%
12:00 +25°C° 0 mm 3 m/s 754 mmHg 51%
13:00 +26°C° 0 mm 3 m/s 754 mmHg 49%
14:00 +26°C° 0 mm 2 m/s 754 mmHg 48%
15:00 +26°C° 0 mm 2 m/s 754 mmHg 47%
16:00 +26°C° 0 mm 2 m/s 753 mmHg 46%
17:00 +25°C° 0 mm 2 m/s 753 mmHg 52%
18:00 +24°C° 0 mm 1 m/s 753 mmHg 57%
19:00 +23°C° 0 mm 1 m/s 753 mmHg 63%
20:00 +22°C° 0 mm 1 m/s 753 mmHg 63%
21:00 +21°C° 0 mm 1 m/s 753 mmHg 64%
22:00 +20°C° 0 mm 1 m/s 753 mmHg 64%
23:00 +19°C° 0 mm 1 m/s 753 mmHg 66%

28 Junho, Segunda-feira

Tempo Temperatura Precipitação Vento Pressão Humidade
00:00 +19°C° 0 mm 1 m/s 753 mmHg 68%
01:00 +18°C° 0 mm 1 m/s 753 mmHg 70%
02:00 +18°C° 0 mm 1 m/s 753 mmHg 72%
03:00 +18°C° 0 mm 1 m/s 753 mmHg 74%
04:00 +16°C° 0 mm 1 m/s 753 mmHg 76%
05:00 +19°C° 0 mm 1 m/s 753 mmHg 72%
06:00 +21°C° 0 mm 1 m/s 753 mmHg 68%
07:00 +22°C° 0 mm 1 m/s 754 mmHg 65%
08:00 +24°C° 0 mm 1 m/s 754 mmHg 60%
09:00 +25°C° 0 mm 1 m/s 754 mmHg 56%
10:00 +27°C° 0 mm 1 m/s 754 mmHg 51%
11:00 +27°C° 0 mm 1 m/s 753 mmHg 48%
12:00 +26°C° 0 mm 0 m/s 753 mmHg 46%
13:00 +27°C° 0 mm 0 m/s 753 mmHg 43%
14:00 +27°C° 0 mm 0 m/s 753 mmHg 42%
15:00 +27°C° 0 mm 0 m/s 753 mmHg 42%
16:00 +27°C° 0 mm 0 m/s 753 mmHg 41%
17:00 +28°C° 0 mm 1 m/s 752 mmHg 47%
18:00 +27°C° 0 mm 1 m/s 752 mmHg 52%
19:00 +25°C° 0 mm 1 m/s 752 mmHg 58%
20:00 +24°C° 0 mm 2 m/s 752 mmHg 60%
21:00 +23°C° 0 mm 2 m/s 752 mmHg 61%
22:00 +20°C° 0 mm 3 m/s 752 mmHg 63%
23:00 +20°C° 0 mm 3 m/s 752 mmHg 65%

29 Junho, Terça-feira

Tempo Temperatura Precipitação Vento Pressão Humidade
00:00 +19°C° 0 mm 2 m/s 752 mmHg 68%
01:00 +18°C° 0 mm 2 m/s 751 mmHg 70%
02:00 +18°C° 0 mm 2 m/s 751 mmHg 72%
03:00 +18°C° 0 mm 3 m/s 751 mmHg 73%
04:00 +17°C° 0 mm 3 m/s 751 mmHg 74%
05:00 +19°C° 0 mm 3 m/s 751 mmHg 70%
06:00 +21°C° 0 mm 3 m/s 751 mmHg 66%
07:00 +22°C° 0 mm 3 m/s 751 mmHg 62%
08:00 +25°C° 0 mm 4 m/s 751 mmHg 57%
09:00 +26°C° 0 mm 4 m/s 750 mmHg 52%
10:00 +28°C° 0 mm 5 m/s 750 mmHg 47%
11:00 +29°C° 0 mm 5 m/s 750 mmHg 46%
12:00 +29°C° 0 mm 5 m/s 749 mmHg 44%
13:00 +30°C° 0 mm 5 m/s 749 mmHg 42%
14:00 +30°C° 0 mm 4 m/s 749 mmHg 43%
15:00 +30°C° 0 mm 4 m/s 748 mmHg 45%
16:00 +30°C° 0 mm 4 m/s 748 mmHg 46%
17:00 +29°C° 0.1 mm 4 m/s 748 mmHg 54%
18:00 +27°C° 0.1 mm 4 m/s 748 mmHg 62%
19:00 +25°C° 0.1 mm 4 m/s 748 mmHg 69%
20:00 +24°C° 0.6 mm 3 m/s 748 mmHg 74%
21:00 +23°C° 0.6 mm 2 m/s 748 mmHg 78%
22:00 +21°C° 0.6 mm 2 m/s 748 mmHg 82%
23:00 +20°C° 0.2 mm 2 m/s 748 mmHg 83%

30 Junho, Quarta-feira

Tempo Temperatura Precipitação Vento Pressão Humidade
00:00 +20°C° 0.2 mm 2 m/s 747 mmHg 84%
01:00 +19°C° 0.2 mm 2 m/s 747 mmHg 86%
02:00 +19°C° 0.3 mm 2 m/s 747 mmHg 87%
03:00 +19°C° 0.3 mm 2 m/s 747 mmHg 88%
04:00 +19°C° 0.3 mm 1 m/s 747 mmHg 90%
05:00 +20°C° 0.9 mm 2 m/s 747 mmHg 87%
06:00 +21°C° 0.9 mm 2 m/s 747 mmHg 85%
07:00 +23°C° 0.9 mm 2 m/s 748 mmHg 82%
08:00 +24°C° 0.3 mm 2 m/s 747 mmHg 79%
09:00 +25°C° 0.3 mm 2 m/s 747 mmHg 77%
10:00 +25°C° 0.3 mm 2 m/s 747 mmHg 74%
11:00 +26°C° 0.2 mm 2 m/s 748 mmHg 73%
12:00 +26°C° 0.2 mm 3 m/s 748 mmHg 73%
13:00 +26°C° 0.2 mm 4 m/s 748 mmHg 72%
14:00 +26°C° 0.3 mm 5 m/s 748 mmHg 74%
15:00 +25°C° 0.3 mm 5 m/s 748 mmHg 75%
16:00 +23°C° 0.3 mm 6 m/s 748 mmHg 77%
17:00 +23°C° 0.1 mm 6 m/s 749 mmHg 78%
18:00 +22°C° 0.1 mm 5 m/s 749 mmHg 80%
19:00 +21°C° 0.1 mm 4 m/s 749 mmHg 81%
20:00 +20°C° 0 mm 4 m/s 749 mmHg 85%
21:00 +19°C° 0 mm 3 m/s 750 mmHg 89%
22:00 +18°C° 0 mm 3 m/s 750 mmHg 93%
23:00 +18°C° 0 mm 3 m/s 750 mmHg 94%
Mostrar mais